Hourly Data Report for October 04, 2016

All times are specified in Local Standard Time (LST). Add 1 hour to adjust for Daylight Saving Time where and when it is observed.

QIKIQTARJUAQ A
NUNAVUT

67°32'48.000" N
64°01'54.000" W
5.50 m
2400577
YVM

Download Data

Hourly Data (October 2016)
Hourly Data Report for October 4, 2016
Temp Definition
°C
Dew Point Temp Definition
°C
Rel Hum Definition
%
Wind Dir Definition
10's deg

Wind Spd Definition
km/h
Visibility Definition
km
Stn Press Definition
kPa
Hmdx Definition


Wind Chill Definition


Weather Definition


TIME
00:00 Legend Double Dagger -1.4 -5.8 72 18 13 16.1 100.49   -6 LegendNANA
01:00 Legend Double Dagger -1.7 -6.5 70 14 8 16.1 100.46   -5 LegendNANA
02:00 Legend Double Dagger -1.8 -5.8 74 20 9 16.1 100.40   -5 LegendNANA
03:00 Legend Double Dagger -1.8 -5.3 77 20 9 16.1 100.34   -5 LegendNANA
04:00 Legend Double Dagger -1.8 -5.2 78 LegendMM 4 16.1 100.30   -3 LegendNANA
05:00 Legend Double Dagger -1.6 -5.3 76 18 11 16.1 100.26   -5 LegendNANA
06:00 Legend Double Dagger -2.6 -5.0 84 18 9 16.1 100.20   -6 LegendNANA
07:00 Legend Double Dagger -1.8 -4.6 81 19 9 16.1 100.12   -5 LegendNANA
08:00 Legend Double Dagger -1.0 -4.9 75 19 9 16.1 100.05   -4 LegendNANA
09:00 Legend Double Dagger -0.8 -5.4 71 21 9 16.1 99.98   -4 LegendNANA
10:00 Legend Double Dagger -0.3 -4.9 71 21 9 16.1 99.92   -3 LegendNANA
11:00 Legend Double Dagger -0.4 -4.5 74 LegendMM 4 16.1 99.87   -2 LegendNANA
12:00 Legend Double Dagger -0.1 -4.0 75 24 5 16.1 99.81   -2 LegendNANA
13:00 Legend Double Dagger 0.0 -3.9 75 22 5 16.1 99.81   -2 LegendNANA
14:00 Legend Double Dagger 0.0 -3.6 77 21 5 16.1 99.80   -2 LegendNANA
15:00 Legend Double Dagger 0.0 -3.7 76   0 16.1 99.77     LegendNANA
16:00 Legend Double Dagger 0.1 -2.9 80   0 16.1 99.76     LegendNANA
17:00 Legend Double Dagger 0.1 -2.7 82 19 5 16.1 99.76     LegendNANA
18:00 Legend Double Dagger 0.0 -2.8 81 20 5 16.1 99.76   -2 LegendNANA
19:00 Legend Double Dagger 0.2 -2.6 82 19 8 16.1 99.76     LegendNANA
20:00 Legend Double Dagger 0.1 -2.7 82 16 5 16.1 99.76     LegendNANA
21:00 Legend Double Dagger 0.0 -2.5 83   0 16.1 99.77     LegendNANA
22:00 Legend Double Dagger -0.2 -2.1 87 9 4 16.1 99.77   -1 LegendNANA
23:00 Legend Double Dagger -0.2 -1.9 89 LegendMM 4 16.1 99.78   -1 LegendNANA

Notes on Data Quality.

Legend

  • E = Estimated
  • M = Missing
  • NA = Not Available
  • ‡ = Partner data that is not subject to review by the National Climate Archives
Date modified: